| time (UTC) | temp F | wind direction | speed MPH | gust MPH | rain 1hr in | rain 24hr in | rain mn in | humidity % | barometer mb |
| 20260508230046 | 66 | 213 | 1.0 | 8.0 | 0.00 | 0.00 | 0.00 | 52 | 1015.3 |
| 20260508225546 | 66 | 200 | 1.0 | 6.0 | 0.00 | 0.00 | 0.00 | 53 | 1015.3 |
| 20260508225046 | 66 | 213 | 2.0 | 6.0 | 0.00 | 0.00 | 0.00 | 52 | 1015.4 |
| 20260508224546 | 66 | 134 | 2.0 | 8.0 | 0.00 | 0.00 | 0.00 | 52 | 1015.3 |
| 20260508224046 | 66 | 137 | 3.0 | 8.0 | 0.00 | 0.00 | 0.00 | 51 | 1015.3 |
| 20260508223545 | 66 | 178 | 1.0 | 5.0 | 0.00 | 0.00 | 0.00 | 51 | 1015.3 |
| 20260508223046 | 66 | 229 | 1.0 | 5.0 | 0.00 | 0.00 | 0.00 | 51 | 1015.3 |
| 20260508222544 | 66 | 121 | 0.0 | 6.0 | 0.00 | 0.00 | 0.00 | 51 | 1015.3 |
| 20260508222046 | 66 | 189 | 1.0 | 6.0 | 0.00 | 0.00 | 0.00 | 52 | 1015.3 |
| 20260508221545 | 67 | 68 | 2.0 | 6.0 | 0.00 | 0.00 | 0.00 | 48 | 1015.2 |
| 20260508221044 | 67 | 150 | 0.0 | 5.0 | 0.00 | 0.00 | 0.00 | 49 | 1015.3 |
| 20260508220547 | 67 | 225 | 1.0 | 7.0 | 0.00 | 0.00 | 0.00 | 49 | 1015.3 |
| 20260508220043 | 68 | 215 | 2.0 | 7.0 | 0.00 | 0.00 | 0.00 | 49 | 1015.3 |
| 20260508215543 | 67 | 199 | 3.0 | 7.0 | 0.00 | 0.00 | 0.00 | 48 | 1015.2 |
| 20260508215047 | 67 | 217 | 1.0 | 7.0 | 0.00 | 0.00 | 0.00 | 46 | 1015.0 |
| 20260508214544 | 68 | 158 | 2.0 | 6.0 | 0.00 | 0.00 | 0.00 | 46 | 1015.0 |
| 20260508214044 | 68 | 200 | 0.0 | 5.0 | 0.00 | 0.00 | 0.00 | 50 | 1014.9 |
| 20260508213542 | 67 | 186 | 1.0 | 5.0 | 0.00 | 0.00 | 0.00 | 48 | 1014.9 |
| 20260508213042 | 68 | 225 | 0.0 | 4.0 | 0.00 | 0.00 | 0.00 | 47 | 1015.0 |
| 20260508212541 | 68 | 196 | 1.0 | 8.0 | 0.00 | 0.00 | 0.00 | 44 | 1014.7 |
| 20260508212043 | 68 | 157 | 3.0 | 8.0 | 0.00 | 0.00 | 0.00 | 46 | 1015.0 |
| 20260508211541 | 68 | 138 | 1.0 | 4.0 | 0.00 | 0.00 | 0.00 | 45 | 1015.1 |
| 20260508211041 | 68 | 130 | 1.0 | 7.0 | 0.00 | 0.00 | 0.00 | 44 | 1015.0 |
| 20260508210541 | 68 | 211 | 1.0 | 7.0 | 0.00 | 0.00 | 0.00 | 47 | 1015.2 |
| 20260508210041 | 69 | 165 | 2.0 | 7.0 | 0.00 | 0.00 | 0.00 | 45 | 1015.2 |
| 20260508205540 | 68 | 51 | 0.0 | 3.0 | 0.00 | 0.00 | 0.00 | 48 | 1015.3 |
| 20260508205040 | 68 | 213 | 1.0 | 6.0 | 0.00 | 0.00 | 0.00 | 45 | 1015.2 |
| 20260508204541 | 68 | 198 | 1.0 | 9.0 | 0.00 | 0.00 | 0.00 | 44 | 1015.2 |
| 20260508204040 | 69 | 113 | 1.0 | 9.0 | 0.00 | 0.00 | 0.00 | 47 | 1015.4 |
| 20260508203540 | 68 | 271 | 1.0 | 5.0 | 0.00 | 0.00 | 0.00 | 46 | 1015.4 |
| 20260508203042 | 68 | 151 | 1.0 | 4.0 | 0.00 | 0.00 | 0.00 | 49 | 1015.4 |
| 20260508202540 | 68 | 187 | 1.0 | 4.0 | 0.00 | 0.00 | 0.00 | 47 | 1015.6 |
| 20260508202040 | 67 | 238 | 1.0 | 3.0 | 0.00 | 0.00 | 0.00 | 45 | 1015.6 |
| 20260508201546 | 68 | 243 | 0.0 | 5.0 | 0.00 | 0.00 | 0.00 | 48 | 1015.6 |
| 20260508201040 | 69 | 265 | 1.0 | 5.0 | 0.00 | 0.00 | 0.00 | 48 | 1015.8 |
| 20260508200539 | 67 | 74 | 2.0 | 7.0 | 0.00 | 0.00 | 0.00 | 46 | 1015.9 |
| 20260508200039 | 68 | 85 | 2.0 | 7.0 | 0.00 | 0.00 | 0.00 | 44 | 1016.0 |
| 20260508195538 | 67 | 215 | 1.0 | 7.0 | 0.00 | 0.00 | 0.00 | 49 | 1016.1 |
| 20260508195042 | 67 | 212 | 3.0 | 7.0 | 0.00 | 0.00 | 0.00 | 44 | 1016.2 |
| 20260508194538 | 69 | 274 | 1.0 | 5.0 | 0.00 | 0.00 | 0.00 | 44 | 1016.3 |
| 20260508194039 | 69 | 222 | 2.0 | 7.0 | 0.00 | 0.00 | 0.00 | 45 | 1016.1 |
| 20260508193538 | 70 | 202 | 2.0 | 7.0 | 0.00 | 0.00 | 0.00 | 42 | 1016.1 |
| 20260508193040 | 69 | 194 | 1.0 | 7.0 | 0.00 | 0.00 | 0.00 | 42 | 1016.4 |
| 20260508192640 | 70 | 243 | 2.0 | 7.0 | 0.00 | 0.00 | 0.00 | 43 | 1016.4 |
| 20260508192038 | 69 | 178 | 0.0 | 4.0 | 0.00 | 0.00 | 0.00 | 48 | 1016.5 |
| 20260508191540 | 66 | 117 | 0.0 | 4.0 | 0.00 | 0.00 | 0.00 | 44 | 1016.5 |
| 20260508191037 | 66 | 68 | 0.0 | 6.0 | 0.00 | 0.00 | 0.00 | 41 | 1016.4 |
| 20260508190537 | 67 | 123 | 2.0 | 7.0 | 0.00 | 0.00 | 0.00 | 40 | 1016.6 |
| 20260508190037 | 69 | 85 | 3.0 | 8.0 | 0.00 | 0.00 | 0.00 | 38 | 1016.8 |
| 20260508185538 | 70 | 161 | 3.0 | 8.0 | 0.00 | 0.00 | 0.00 | 39 | 1016.6 |
| 20260508185035 | 70 | 176 | 2.0 | 8.0 | 0.00 | 0.00 | 0.00 | 41 | 1016.7 |
| 20260508184536 | 69 | 140 | 3.0 | 8.0 | 0.00 | 0.00 | 0.00 | 38 | 1016.9 |
| 20260508184034 | 68 | 64 | 2.0 | 8.0 | 0.00 | 0.00 | 0.00 | 35 | 1016.8 |
| 20260508183534 | 69 | 42 | 1.0 | 7.0 | 0.00 | 0.00 | 0.00 | 39 | 1016.8 |
| 20260508183037 | 69 | 138 | 1.0 | 7.0 | 0.00 | 0.00 | 0.00 | 41 | 1016.9 |
| 20260508182534 | 68 | 149 | 2.0 | 8.0 | 0.00 | 0.00 | 0.00 | 43 | 1017.1 |
| 20260508182035 | 68 | 90 | 1.0 | 8.0 | 0.00 | 0.00 | 0.00 | 43 | 1017.2 |
| 20260508181542 | 66 | 214 | 0.0 | 4.0 | 0.00 | 0.00 | 0.00 | 44 | 1017.2 |
| 20260508181033 | 67 | 123 | 1.0 | 7.0 | 0.00 | 0.00 | 0.00 | 40 | 1017.3 |
| 20260508180534 | 69 | 252 | 2.0 | 7.0 | 0.00 | 0.00 | 0.00 | 43 | 1017.3 |
| 20260508180033 | 69 | 171 | 2.0 | 10.0 | 0.00 | 0.00 | 0.00 | 42 | 1017.3 |
| 20260508175534 | 68 | 200 | 4.0 | 10.0 | 0.00 | 0.00 | 0.00 | 41 | 1017.3 |
| 20260508175031 | 67 | 81 | 3.0 | 7.0 | 0.00 | 0.00 | 0.00 | 39 | 1017.4 |
| 20260508174536 | 67 | 93 | 3.0 | 8.0 | 0.00 | 0.00 | 0.00 | 40 | 1017.5 |
| 20260508174031 | 67 | 62 | 3.0 | 8.0 | 0.00 | 0.00 | 0.00 | 39 | 1017.5 |
| 20260508173531 | 68 | 180 | 3.0 | 7.0 | 0.00 | 0.00 | 0.00 | 38 | 1017.6 |
| 20260508173039 | 67 | 50 | 2.0 | 8.0 | 0.00 | 0.00 | 0.00 | 36 | 1017.6 |
| 20260508172629 | 67 | 193 | 2.0 | 8.0 | 0.00 | 0.00 | 0.00 | 40 | 1017.7 |
| 20260508172029 | 66 | 174 | 1.0 | 7.0 | 0.00 | 0.00 | 0.00 | 38 | 1017.7 |
| 20260508171530 | 66 | 116 | 3.0 | 7.0 | 0.00 | 0.00 | 0.00 | 34 | 1017.8 |
| 20260508171028 | 66 | 242 | 1.0 | 6.0 | 0.00 | 0.00 | 0.00 | 39 | 1018.1 |
| 20260508170530 | 67 | 294 | 2.0 | 5.0 | 0.00 | 0.00 | 0.00 | 38 | 1018.2 |
| 20260508170028 | 66 | 225 | 1.0 | 7.0 | 0.00 | 0.00 | 0.00 | 34 | 1018.2 |
| 20260508165527 | 66 | 301 | 2.0 | 7.0 | 0.00 | 0.00 | 0.00 | 31 | 1018.4 |
| 20260508165028 | 67 | 249 | 1.0 | 8.0 | 0.00 | 0.00 | 0.00 | 38 | 1018.4 |
| 20260508164527 | 67 | 198 | 2.0 | 8.0 | 0.00 | 0.00 | 0.00 | 44 | 1018.4 |
| 20260508164027 | 66 | 258 | 2.0 | 6.0 | 0.00 | 0.00 | 0.00 | 31 | 1018.6 |
| 20260508163526 | 66 | 135 | 3.0 | 6.0 | 0.00 | 0.00 | 0.00 | 32 | 1018.6 |
| 20260508163027 | 65 | 131 | 3.0 | 5.0 | 0.00 | 0.00 | 0.00 | 33 | 1018.6 |
| 20260508162527 | 65 | 246 | 1.0 | 5.0 | 0.00 | 0.00 | 0.00 | 35 | 1018.7 |
| 20260508162025 | 65 | 327 | 0.0 | 4.0 | 0.00 | 0.00 | 0.00 | 38 | 1018.8 |
| 20260508161526 | 66 | 61 | 0.0 | 3.0 | 0.00 | 0.00 | 0.00 | 43 | 1018.9 |
| 20260508161025 | 65 | 206 | 0.0 | 5.0 | 0.00 | 0.00 | 0.00 | 38 | 1018.9 |
| 20260508160524 | 64 | 117 | 2.0 | 7.0 | 0.00 | 0.00 | 0.00 | 39 | 1019.1 |
| 20260508160024 | 64 | 101 | 3.0 | 7.0 | 0.00 | 0.00 | 0.00 | 35 | 1019.2 |
| 20260508155524 | 64 | 107 | 2.0 | 7.0 | 0.00 | 0.00 | 0.00 | 33 | 1019.3 |
| 20260508155023 | 64 | 105 | 3.0 | 7.0 | 0.00 | 0.00 | 0.00 | 39 | 1019.4 |
| 20260508154523 | 64 | 148 | 1.0 | 6.0 | 0.00 | 0.00 | 0.00 | 38 | 1019.4 |
| 20260508154022 | 64 | 92 | 3.0 | 6.0 | 0.00 | 0.00 | 0.00 | 38 | 1019.4 |
| 20260508153521 | 64 | 112 | 0.0 | 3.0 | 0.00 | 0.00 | 0.00 | 43 | 1019.4 |
| 20260508153122 | 63 | 190 | 1.0 | 4.0 | 0.00 | 0.00 | 0.00 | 44 | 1019.4 |
| 20260508152522 | 63 | 132 | 0.0 | 7.0 | 0.00 | 0.00 | 0.00 | 45 | 1019.4 |
| 20260508152019 | 63 | 210 | 2.0 | 7.0 | 0.00 | 0.00 | 0.00 | 45 | 1019.4 |
| 20260508151527 | 63 | 196 | 1.0 | 4.0 | 0.00 | 0.00 | 0.00 | 51 | 1019.4 |
| 20260508151020 | 64 | 351 | 1.0 | 3.0 | 0.00 | 0.00 | 0.00 | 52 | 1019.5 |
| 20260508150517 | 63 | 254 | 0.0 | 3.0 | 0.00 | 0.00 | 0.00 | 54 | 1019.5 |
| 20260508150027 | 63 | 205 | 0.0 | 4.0 | 0.00 | 0.00 | 0.00 | 52 | 1019.6 |
| 20260508145516 | 62 | 298 | 2.0 | 7.0 | 0.00 | 0.00 | 0.00 | 52 | 1019.6 |
| 20260508145014 | 61 | 236 | 2.0 | 7.0 | 0.00 | 0.00 | 0.00 | 53 | 1019.7 |
| 20260508144515 | 61 | 205 | 2.0 | 6.0 | 0.00 | 0.00 | 0.00 | 51 | 1019.6 |
| 20260508144016 | 61 | 248 | 2.0 | 6.0 | 0.00 | 0.00 | 0.00 | 53 | 1019.7 |
| 20260508143516 | 60 | 91 | 1.0 | 5.0 | 0.00 | 0.00 | 0.00 | 53 | 1019.7 |
| 20260508143014 | 61 | 225 | 1.0 | 5.0 | 0.00 | 0.00 | 0.00 | 52 | 1019.7 |
| 20260508142513 | 61 | 225 | 1.0 | 4.0 | 0.00 | 0.00 | 0.00 | 52 | 1019.6 |
| 20260508142012 | 60 | 126 | 1.0 | 4.0 | 0.00 | 0.00 | 0.00 | 53 | 1019.7 |
| 20260508141512 | 61 | 343 | 1.0 | 4.0 | 0.00 | 0.00 | 0.00 | 51 | 1019.8 |
| 20260508141011 | 61 | 267 | 0.0 | 3.0 | 0.00 | 0.00 | 0.00 | 60 | 1019.8 |
| 20260508140511 | 60 | 14 | 0.0 | 0.0 | 0.00 | 0.00 | 0.00 | 58 | 1019.7 |
| 20260508140008 | 60 | 298 | 0.0 | 2.0 | 0.00 | 0.00 | 0.00 | 60 | 1019.7 |
| 20260508135509 | 59 | 231 | 0.0 | 3.0 | 0.00 | 0.00 | 0.00 | 58 | 1019.7 |
| 20260508135007 | 59 | 303 | 0.0 | 4.0 | 0.00 | 0.00 | 0.00 | 56 | 1019.6 |
| 20260508134506 | 59 | 243 | 1.0 | 4.0 | 0.00 | 0.00 | 0.00 | 55 | 1019.7 |
| 20260508134005 | 59 | 290 | 0.0 | 1.0 | 0.00 | 0.00 | 0.00 | 57 | 1019.6 |
| 20260508133507 | 58 | 290 | 0.0 | 3.0 | 0.00 | 0.00 | 0.00 | 59 | 1019.6 |
| 20260508133005 | 58 | 261 | 0.0 | 3.0 | 0.00 | 0.00 | 0.00 | 58 | 1019.6 |
| 20260508132506 | 58 | 78 | 0.0 | 2.0 | 0.00 | 0.00 | 0.00 | 61 | 1019.6 |
| 20260508132002 | 58 | 202 | 0.0 | 3.0 | 0.00 | 0.00 | 0.00 | 59 | 1019.6 |
| 20260508131504 | 57 | 266 | 0.0 | 3.0 | 0.00 | 0.00 | 0.00 | 61 | 1019.6 |
| 20260508131101 | 57 | 273 | 0.0 | 3.0 | 0.00 | 0.00 | 0.00 | 68 | 1019.5 |
| 20260508130559 | 57 | 265 | 1.0 | 3.0 | 0.00 | 0.00 | 0.00 | 65 | 1019.4 |
| 20260508130058 | 56 | 252 | 0.0 | 3.0 | 0.00 | 0.00 | 0.00 | 65 | 1019.4 |
| 20260508125557 | 56 | 212 | 0.0 | 3.0 | 0.00 | 0.04 | 0.00 | 71 | 1019.4 |
| 20260508125056 | 55 | 320 | 0.0 | 1.0 | 0.00 | 0.04 | 0.00 | 78 | 1019.5 |
| 20260508124600 | 55 | 276 | 0.0 | 2.0 | 0.00 | 0.04 | 0.00 | 75 | 1019.3 |
| 20260508124054 | 54 | 262 | 0.0 | 1.0 | 0.00 | 0.04 | 0.00 | 78 | 1019.4 |
| 20260508123552 | 54 | 262 | 0.0 | 0.0 | 0.00 | 0.04 | 0.00 | 79 | 1019.4 |
| 20260508123052 | 53 | 262 | 0.0 | 0.0 | 0.00 | 0.04 | 0.00 | 83 | 1019.4 |
| 20260508122550 | 52 | 262 | 0.0 | 1.0 | 0.00 | 0.04 | 0.00 | 87 | 1019.3 |
| 20260508122048 | 51 | 242 | 0.0 | 1.0 | 0.00 | 0.04 | 0.00 | 89 | 1019.2 |
| 20260508121548 | 50 | 249 | 0.0 | 0.0 | 0.00 | 0.04 | 0.00 | 89 | 1019.3 |
| 20260508121047 | 49 | 249 | 0.0 | 0.0 | 0.00 | 0.04 | 0.00 | 92 | 1019.2 |
| 20260508120547 | 49 | 225 | 0.0 | 2.0 | 0.00 | 0.04 | 0.00 | 94 | 1019.0 |
| 20260508120045 | 47 | 221 | 0.0 | 2.0 | 0.00 | 0.04 | 0.00 | 95 | 1018.9 |
| 20260508115544 | 47 | 225 | 0.0 | 0.0 | 0.00 | 0.17 | 0.00 | 96 | 1018.8 |
| 20260508115043 | 46 | 225 | 0.0 | 0.0 | 0.00 | 0.17 | 0.00 | 96 | 1018.9 |
| 20260508114543 | 45 | 226 | 0.0 | 0.0 | 0.00 | 0.17 | 0.00 | 96 | 1018.8 |
| 20260508114042 | 44 | 219 | 0.0 | 0.0 | 0.00 | 0.17 | 0.00 | 96 | 1018.6 |
| 20260508113542 | 44 | 219 | 0.0 | 0.0 | 0.00 | 0.17 | 0.00 | 96 | 1018.5 |
| 20260508113050 | 44 | 219 | 0.0 | 0.0 | 0.00 | 0.17 | 0.00 | 96 | 1018.3 |
| 20260508112541 | 44 | 219 | 0.0 | 0.0 | 0.00 | 0.17 | 0.00 | 96 | 1018.3 |
| 20260508112040 | 43 | 199 | 0.0 | 0.0 | 0.00 | 0.17 | 0.00 | 96 | 1018.2 |
| 20260508111540 | 43 | 199 | 0.0 | 0.0 | 0.00 | 0.17 | 0.00 | 96 | 1018.1 |
| 20260508111039 | 42 | 197 | 0.0 | 0.0 | 0.00 | 0.17 | 0.00 | 96 | 1018.1 |
| 20260508110539 | 42 | 196 | 0.0 | 0.0 | 0.00 | 0.17 | 0.00 | 96 | 1018.1 |
| 20260508110038 | 42 | 196 | 0.0 | 0.0 | 0.00 | 0.17 | 0.00 | 96 | 1018.0 |
| 20260508105538 | 42 | 196 | 0.0 | 0.0 | 0.00 | 0.19 | 0.00 | 96 | 1018.1 |
| 20260508105037 | 42 | 196 | 0.0 | 0.0 | 0.00 | 0.19 | 0.00 | 95 | 1017.8 |
| 20260508104536 | 42 | 196 | 0.0 | 0.0 | 0.00 | 0.19 | 0.00 | 95 | 1017.8 |
| 20260508104037 | 42 | 196 | 0.0 | 0.0 | 0.00 | 0.19 | 0.00 | 95 | 1017.6 |
| 20260508103535 | 42 | 196 | 0.0 | 0.0 | 0.00 | 0.19 | 0.00 | 95 | 1017.5 |
| 20260508103038 | 42 | 196 | 0.0 | 0.0 | 0.00 | 0.19 | 0.00 | 95 | 1017.3 |
| 20260508102533 | 42 | 196 | 0.0 | 0.0 | 0.00 | 0.19 | 0.00 | 95 | 1017.3 |
| 20260508102032 | 42 | 196 | 0.0 | 0.0 | 0.00 | 0.19 | 0.00 | 95 | 1017.2 |
| 20260508101533 | 42 | 196 | 0.0 | 0.0 | 0.00 | 0.19 | 0.00 | 95 | 1017.1 |
| 20260508101030 | 42 | 196 | 0.0 | 0.0 | 0.00 | 0.19 | 0.00 | 95 | 1017.0 |
| 20260508100529 | 43 | 196 | 0.0 | 0.0 | 0.00 | 0.19 | 0.00 | 95 | 1016.9 |
| 20260508100031 | 43 | 196 | 0.0 | 0.0 | 0.00 | 0.19 | 0.00 | 95 | 1017.0 |
| 20260508095529 | 43 | 196 | 0.0 | 0.0 | 0.00 | 0.19 | 0.00 | 95 | 1016.9 |
| 20260508095029 | 43 | 196 | 0.0 | 0.0 | 0.00 | 0.19 | 0.00 | 95 | 1017.0 |
| 20260508094528 | 43 | 196 | 0.0 | 0.0 | 0.00 | 0.19 | 0.00 | 95 | 1016.9 |
| 20260508094028 | 43 | 196 | 0.0 | 0.0 | 0.00 | 0.19 | 0.00 | 95 | 1016.8 |
| 20260508093528 | 43 | 196 | 0.0 | 0.0 | 0.00 | 0.19 | 0.00 | 95 | 1016.8 |
| 20260508093030 | 43 | 196 | 0.0 | 0.0 | 0.00 | 0.19 | 0.00 | 95 | 1016.9 |
| 20260508092526 | 43 | 196 | 0.0 | 0.0 | 0.00 | 0.19 | 0.00 | 95 | 1016.8 |
| 20260508092026 | 43 | 196 | 0.0 | 0.0 | 0.00 | 0.19 | 0.00 | 95 | 1016.7 |
| 20260508091535 | 43 | 196 | 0.0 | 0.0 | 0.00 | 0.19 | 0.00 | 95 | 1016.8 |
| 20260508091027 | 43 | 192 | 0.0 | 0.0 | 0.00 | 0.19 | 0.00 | 95 | 1016.7 |
| 20260508090525 | 43 | 192 | 0.0 | 0.0 | 0.00 | 0.19 | 0.00 | 94 | 1016.7 |
| 20260508090036 | 44 | 186 | 0.0 | 0.0 | 0.00 | 0.19 | 0.00 | 95 | 1016.7 |
| 20260508085523 | 44 | 59 | 0.0 | 0.0 | 0.00 | 0.19 | 0.00 | 95 | 1016.6 |
| 20260508085022 | 44 | 59 | 0.0 | 0.0 | 0.00 | 0.19 | 0.00 | 95 | 1016.5 |
| 20260508084522 | 44 | 59 | 0.0 | 0.0 | 0.00 | 0.19 | 0.00 | 95 | 1016.5 |
| 20260508084022 | 44 | 59 | 0.0 | 0.0 | 0.00 | 0.19 | 0.00 | 95 | 1016.5 |
| 20260508083521 | 44 | 59 | 0.0 | 0.0 | 0.00 | 0.19 | 0.00 | 95 | 1016.5 |
| 20260508083021 | 44 | 59 | 0.0 | 0.0 | 0.00 | 0.19 | 0.00 | 95 | 1016.6 |
| 20260508082520 | 44 | 59 | 0.0 | 0.0 | 0.00 | 0.19 | 0.00 | 95 | 1016.4 |
| 20260508082019 | 45 | 59 | 0.0 | 0.0 | 0.00 | 0.19 | 0.00 | 95 | 1016.4 |
| 20260508081519 | 45 | 59 | 0.0 | 0.0 | 0.00 | 0.19 | 0.00 | 95 | 1016.3 |
| 20260508081018 | 45 | 59 | 0.0 | 0.0 | 0.00 | 0.19 | 0.00 | 95 | 1016.3 |
| 20260508080518 | 45 | 59 | 0.0 | 0.0 | 0.00 | 0.19 | 0.00 | 95 | 1016.3 |
| 20260508080024 | 45 | 59 | 0.0 | 0.0 | 0.00 | 0.19 | 0.00 | 94 | 1016.2 |
| 20260508075516 | 45 | 59 | 0.0 | 0.0 | 0.00 | 0.20 | 0.00 | 94 | 1016.1 |
| 20260508075016 | 45 | 59 | 0.0 | 0.0 | 0.00 | 0.20 | 0.00 | 94 | 1016.2 |
| 20260508074526 | 45 | 59 | 0.0 | 0.0 | 0.00 | 0.20 | 0.00 | 94 | 1016.1 |
| 20260508074015 | 45 | 59 | 0.0 | 0.0 | 0.00 | 0.20 | 0.00 | 94 | 1016.1 |
| 20260508073515 | 45 | 59 | 0.0 | 0.0 | 0.00 | 0.20 | 0.00 | 94 | 1016.1 |
| 20260508073015 | 45 | 59 | 0.0 | 0.0 | 0.00 | 0.20 | 0.00 | 94 | 1016.0 |
| 20260508072513 | 45 | 59 | 0.0 | 0.0 | 0.00 | 0.20 | 0.00 | 94 | 1016.0 |
| 20260508072013 | 45 | 59 | 0.0 | 0.0 | 0.00 | 0.20 | 0.00 | 94 | 1016.0 |
| 20260508071522 | 45 | 59 | 0.0 | 0.0 | 0.00 | 0.20 | 0.00 | 94 | 1015.9 |
| 20260508071017 | 45 | 59 | 0.0 | 0.0 | 0.00 | 0.20 | 0.00 | 94 | 1015.9 |
| 20260508070517 | 45 | 59 | 0.0 | 0.0 | 0.00 | 0.20 | 0.00 | 93 | 1016.0 |
| 20260508070013 | 45 | 59 | 0.0 | 0.0 | 0.00 | 0.20 | 0.00 | 93 | 1015.9 |
| 20260508065510 | 46 | 59 | 0.0 | 0.0 | 0.00 | 0.20 | 0.00 | 93 | 1015.7 |
| 20260508065012 | 46 | 59 | 0.0 | 0.0 | 0.00 | 0.20 | 0.00 | 93 | 1015.8 |
| 20260508064510 | 46 | 59 | 0.0 | 0.0 | 0.00 | 0.20 | 0.00 | 93 | 1015.7 |
| 20260508064010 | 46 | 59 | 0.0 | 0.0 | 0.00 | 0.20 | 0.00 | 93 | 1015.7 |
| 20260508063509 | 46 | 59 | 0.0 | 0.0 | 0.00 | 0.20 | 0.00 | 93 | 1015.5 |
| 20260508063009 | 46 | 61 | 0.0 | 0.0 | 0.00 | 0.20 | 0.00 | 92 | 1015.6 |
| 20260508062507 | 46 | 105 | 0.0 | 0.0 | 0.00 | 0.20 | 0.00 | 92 | 1015.6 |
| 20260508062007 | 46 | 105 | 0.0 | 0.0 | 0.00 | 0.20 | 0.00 | 92 | 1015.5 |
| 20260508061510 | 46 | 333 | 0.0 | 0.0 | 0.00 | 0.20 | 0.00 | 92 | 1015.5 |
| 20260508061006 | 46 | 333 | 0.0 | 0.0 | 0.00 | 0.20 | 0.00 | 92 | 1015.4 |
| 20260508060505 | 46 | 333 | 0.0 | 0.0 | 0.00 | 0.20 | 0.00 | 92 | 1015.4 |
| 20260508060007 | 47 | 333 | 0.0 | 0.0 | 0.00 | 0.20 | 0.00 | 92 | 1015.5 |
| 20260508055505 | 47 | 333 | 0.0 | 0.0 | 0.00 | 0.24 | 0.00 | 92 | 1015.6 |
| 20260508055005 | 46 | 333 | 0.0 | 0.0 | 0.00 | 0.24 | 0.00 | 91 | 1015.4 |
| 20260508054506 | 46 | 333 | 0.0 | 0.0 | 0.00 | 0.24 | 0.00 | 91 | 1015.4 |
| 20260508054005 | 47 | 333 | 0.0 | 0.0 | 0.00 | 0.24 | 0.00 | 90 | 1015.3 |
| 20260508053503 | 47 | 333 | 0.0 | 0.0 | 0.00 | 0.24 | 0.00 | 90 | 1015.4 |
| 20260508053003 | 47 | 333 | 0.0 | 0.0 | 0.00 | 0.24 | 0.00 | 90 | 1015.4 |
| 20260508052502 | 47 | 333 | 0.0 | 0.0 | 0.00 | 0.24 | 0.00 | 89 | 1015.4 |
| 20260508052100 | 47 | 333 | 0.0 | 0.0 | 0.00 | 0.24 | 0.00 | 89 | 1015.3 |
| 20260508051600 | 48 | 333 | 0.0 | 0.0 | 0.00 | 0.24 | 0.00 | 89 | 1015.2 |
| 20260508051059 | 48 | 333 | 0.0 | 0.0 | 0.00 | 0.24 | 0.00 | 88 | 1015.2 |
| 20260508050557 | 48 | 333 | 0.0 | 0.0 | 0.00 | 0.24 | 0.00 | 87 | 1015.2 |
| 20260508050056 | 49 | 333 | 0.0 | 0.0 | 0.00 | 0.24 | 0.00 | 87 | 1015.1 |
| 20260508045555 | 49 | 333 | 0.0 | 1.0 | 0.00 | 0.28 | 0.00 | 86 | 1015.1 |
| 20260508045057 | 49 | 333 | 0.0 | 1.0 | 0.00 | 0.28 | 0.00 | 86 | 1014.9 |
| 20260508044554 | 49 | 333 | 0.0 | 1.0 | 0.00 | 0.28 | 0.00 | 86 | 1015.1 |
| 20260508044054 | 49 | 333 | 0.0 | 1.0 | 0.00 | 0.28 | 0.00 | 85 | 1015.0 |
| 20260508043553 | 49 | 333 | 0.0 | 0.0 | 0.00 | 0.28 | 0.00 | 85 | 1015.0 |
| 20260508043106 | 49 | 333 | 0.0 | 0.0 | 0.00 | 0.28 | 0.00 | 85 | 1014.9 |
| 20260508042552 | 49 | 333 | 0.0 | 0.0 | 0.00 | 0.28 | 0.00 | 84 | 1015.0 |
| 20260508042052 | 49 | 333 | 0.0 | 0.0 | 0.00 | 0.28 | 0.00 | 84 | 1015.0 |
| 20260508041552 | 49 | 333 | 0.0 | 0.0 | 0.00 | 0.28 | 0.00 | 84 | 1014.9 |
| 20260508041050 | 50 | 333 | 0.0 | 0.0 | 0.00 | 0.28 | 0.00 | 82 | 1015.0 |
| 20260508040549 | 50 | 333 | 0.0 | 0.0 | 0.00 | 0.28 | 0.00 | 81 | 1014.9 |
| 20260508040050 | 51 | 333 | 0.0 | 0.0 | 0.00 | 0.28 | 0.00 | 80 | 1014.8 |
| 20260508035547 | 51 | 333 | 0.0 | 0.0 | 0.00 | 0.30 | 0.28 | 79 | 1014.9 |
| 20260508035046 | 51 | 333 | 0.0 | 0.0 | 0.00 | 0.30 | 0.28 | 79 | 1014.9 |
| 20260508034546 | 51 | 333 | 0.0 | 0.0 | 0.00 | 0.30 | 0.28 | 79 | 1015.0 |
| 20260508034046 | 51 | 333 | 0.0 | 2.0 | 0.00 | 0.30 | 0.28 | 79 | 1014.9 |
| 20260508033547 | 51 | 313 | 0.0 | 1.0 | 0.00 | 0.30 | 0.28 | 78 | 1015.0 |
| 20260508033044 | 51 | 313 | 0.0 | 0.0 | 0.00 | 0.30 | 0.28 | 78 | 1014.9 |
| 20260508032544 | 52 | 313 | 0.0 | 0.0 | 0.00 | 0.30 | 0.28 | 77 | 1014.8 |
| 20260508032045 | 52 | 313 | 0.0 | 1.0 | 0.00 | 0.30 | 0.28 | 76 | 1014.9 |
| 20260508031541 | 53 | 313 | 0.0 | 1.0 | 0.00 | 0.30 | 0.28 | 75 | 1014.8 |
| 20260508031040 | 53 | 313 | 0.0 | 0.0 | 0.00 | 0.30 | 0.28 | 74 | 1014.8 |
| 20260508030539 | 53 | 313 | 0.0 | 0.0 | 0.00 | 0.30 | 0.28 | 72 | 1014.7 |
| 20260508030044 | 54 | 313 | 0.0 | 0.0 | 0.00 | 0.30 | 0.28 | 72 | 1014.8 |
| 20260508025536 | 54 | 313 | 0.0 | 1.0 | 0.00 | 0.33 | 0.28 | 70 | 1014.7 |
| 20260508025035 | 55 | 313 | 0.0 | 3.0 | 0.00 | 0.33 | 0.28 | 70 | 1014.6 |
| 20260508024538 | 55 | 324 | 0.0 | 3.0 | 0.00 | 0.33 | 0.28 | 70 | 1014.4 |
| 20260508024034 | 55 | 264 | 0.0 | 3.0 | 0.00 | 0.33 | 0.28 | 69 | 1014.3 |
| 20260508023534 | 55 | 281 | 0.0 | 3.0 | 0.00 | 0.33 | 0.28 | 71 | 1014.2 |
| 20260508023034 | 55 | 281 | 1.0 | 5.0 | 0.00 | 0.33 | 0.28 | 71 | 1014.2 |
| 20260508022533 | 55 | 284 | 1.0 | 3.0 | 0.00 | 0.33 | 0.28 | 69 | 1014.3 |
| 20260508022033 | 55 | 245 | 1.0 | 3.0 | 0.00 | 0.33 | 0.28 | 69 | 1014.3 |
| 20260508021539 | 56 | 277 | 0.0 | 5.0 | 0.00 | 0.33 | 0.28 | 68 | 1014.1 |
| 20260508021033 | 56 | 279 | 2.0 | 5.0 | 0.00 | 0.33 | 0.28 | 68 | 1014.1 |
| 20260508020529 | 56 | 311 | 0.0 | 2.0 | 0.00 | 0.33 | 0.28 | 67 | 1013.9 |
| 20260508020029 | 56 | 311 | 0.0 | 3.0 | 0.00 | 0.33 | 0.28 | 68 | 1013.8 |
| 20260508015528 | 56 | 311 | 0.0 | 5.0 | 0.00 | 0.37 | 0.28 | 69 | 1013.7 |
| 20260508015028 | 56 | 304 | 2.0 | 5.0 | 0.00 | 0.37 | 0.28 | 68 | 1013.6 |
| 20260508014528 | 56 | 287 | 1.0 | 4.0 | 0.00 | 0.37 | 0.28 | 68 | 1013.5 |
| 20260508014027 | 57 | 311 | 1.0 | 6.0 | 0.00 | 0.37 | 0.28 | 67 | 1013.4 |
| 20260508013527 | 57 | 306 | 2.0 | 11.0 | 0.00 | 0.37 | 0.28 | 66 | 1013.4 |
| 20260508013037 | 57 | 306 | 1.0 | 7.0 | 0.00 | 0.37 | 0.28 | 68 | 1013.4 |
| 20260508012527 | 57 | 314 | 1.0 | 7.0 | 0.00 | 0.37 | 0.28 | 67 | 1013.4 |
| 20260508012027 | 57 | 317 | 1.0 | 4.0 | 0.00 | 0.37 | 0.28 | 68 | 1013.4 |
| 20260508011527 | 57 | 335 | 2.0 | 8.0 | 0.00 | 0.37 | 0.28 | 67 | 1013.2 |
| 20260508011029 | 57 | 280 | 1.0 | 8.0 | 0.00 | 0.37 | 0.28 | 66 | 1013.1 |
| 20260508010525 | 57 | 273 | 1.0 | 7.0 | 0.00 | 0.37 | 0.28 | 67 | 1012.9 |
| 20260508010025 | 57 | 297 | 1.0 | 7.0 | 0.00 | 0.37 | 0.28 | 67 | 1012.9 |
| 20260508005527 | 57 | 316 | 0.0 | 7.0 | 0.00 | 0.46 | 0.28 | 66 | 1012.8 |
| 20260508005026 | 57 | 310 | 2.0 | 9.0 | 0.00 | 0.46 | 0.28 | 65 | 1012.7 |
| 20260508004535 | 57 | 279 | 1.0 | 7.0 | 0.00 | 0.46 | 0.28 | 66 | 1012.7 |
| 20260508004023 | 57 | 316 | 1.0 | 6.0 | 0.00 | 0.46 | 0.28 | 67 | 1012.6 |
| 20260508003522 | 57 | 338 | 2.0 | 6.0 | 0.00 | 0.46 | 0.28 | 67 | 1012.5 |
| 20260508003024 | 58 | 313 | 1.0 | 7.0 | 0.00 | 0.46 | 0.28 | 68 | 1012.4 |
| 20260508002521 | 58 | 251 | 2.0 | 8.0 | 0.00 | 0.46 | 0.28 | 66 | 1012.4 |
| 20260508002020 | 58 | 292 | 2.0 | 8.0 | 0.00 | 0.46 | 0.28 | 66 | 1012.5 |
| 20260508001519 | 58 | 350 | 2.0 | 11.0 | 0.00 | 0.46 | 0.28 | 66 | 1012.4 |
| 20260508001018 | 58 | 275 | 2.0 | 8.0 | 0.00 | 0.46 | 0.28 | 63 | 1012.5 |
| 20260508000517 | 59 | 319 | 1.0 | 7.0 | 0.00 | 0.46 | 0.28 | 65 | 1012.5 |
| 20260508000016 | 59 | 291 | 1.0 | 7.0 | 0.00 | 0.46 | 0.28 | 65 | 1012.5 |
| 20260507235515 | 59 | 231 | 0.0 | 7.0 | 0.00 | 0.49 | 0.28 | 64 | 1012.3 |
| 20260507235017 | 60 | 22 | 2.0 | 7.0 | 0.00 | 0.49 | 0.28 | 65 | 1012.3 |
| 20260507234514 | 60 | 306 | 1.0 | 4.0 | 0.00 | 0.49 | 0.28 | 66 | 1012.3 |
| 20260507234013 | 60 | 220 | 1.0 | 7.0 | 0.00 | 0.49 | 0.28 | 67 | 1012.3 |
| 20260507233512 | 60 | 13 | 1.0 | 5.0 | 0.00 | 0.49 | 0.28 | 67 | 1012.1 |
| 20260507233020 | 61 | 22 | 1.0 | 5.0 | 0.00 | 0.49 | 0.28 | 64 | 1012.0 |
| 20260507232512 | 61 | 238 | 1.0 | 6.0 | 0.00 | 0.49 | 0.28 | 65 | 1011.9 |
| 20260507232012 | 61 | 344 | 2.0 | 7.0 | 0.00 | 0.49 | 0.28 | 65 | 1011.9 |
| 20260507231511 | 62 | 35 | 0.0 | 4.0 | 0.00 | 0.49 | 0.28 | 64 | 1012.0 |
| 20260507231012 | 62 | 101 | 1.0 | 8.0 | 0.00 | 0.49 | 0.28 | 63 | 1011.9 |
| 20260507230510 | 63 | 39 | 1.0 | 4.0 | 0.00 | 0.49 | 0.28 | 65 | 1011.7 |